METAR Formatted Surface Weather Observation
Issued by NWS

Home | Current Version | Previous Version | Text Only | Print | Product List | Glossary On
Versions: 1 2 3 4 5 6 7 8 9 10 11 12 13 14 15 16 17 18 19 20 21 22 23 24 25 26 27 28 29 30 31 32 33 34 35 36 37 38 39 40 41 42 43 44 45 46 47 48 49 50
417
SAUS43 KDLH 250758
MTRGNA
METAR KGNA 250756Z AUTO 08022G27KT M01/M02 A2936 RMK AO1 PK WND
08029/0738 SLP953 P0016 T10061017 $



USA.gov is the U.S. government's official web portal to all federal, state and local government web resources and services.